Location: ???????
(55.4362°N, 38.1183°E)
Time: 20:51:18
(UTC+00:00)

SL-4 R/B - Pass Details

Date: 04 November 2021
Orbit: 427 x 661 km, 51.6° (Epoch: 27 November)

Event Time Altitude Azimuth Distance (km) Brightness Sun altitude
Rises 17:00:57 0° 226° (SW) 2,946 6.1 -28.2°
Reaches altitude 10° 17:03:25 10° 217° (SW) 2,056 5.2 -28.6°
Enters shadow 17:04:36 16° 209° (SSW) 1,675 4.6 -28.7°
